Location: Antioch Baptist Church
(32.6696°N, 85.7327°W)
Time: 19:44:49
(UTC+00:00)

H-2A R/B - Pass Details

Date: 14 July 2020
Orbit: 732 x 838 km, 98.2° (Epoch: 13 August)

Event Time Altitude Azimuth Distance (km) Brightness Sun altitude
Rises 01:37:26 0° 183° (S) 3,369 5.0 -9.1°
Reaches altitude 10° 01:39:54 10° 189° (S) 2,441 4.4 -9.5°
Maximum altitude 01:45:03 44° 261° (W) 1,136 3.3 -10.4°
Drops below altitude 10° 01:50:14 10° 333° (NNW) 2,438 5.7 -11.3°
Sets 01:52:41 0° 340° (NNW) 3,365 6.3 -11.7°
